This demonstration page uses our WeatherBlox Daily Observations layout. Learn more.

Left ArrowRight Arrow

38.88101, -77.10428

Hourly Observations for May 25, 2020

Temp ( °F °C ) Dew Point ( °F °C ) Humidity (%) Winds ( mph kmh ) Pressure ( in mb ) Visibility ( mi km ) Precip ( " mm )
12:52 am 00:52 Cloudy 63 17.2 58 14.4 84 84 SE 6 9 30.2 1023 10 16.0934 0 0
1:52 am 01:52 Cloudy 63 17.2 58 14.4 84 84 E 3 6 30.19 1022 10 16.0934 0 0
2:52 am 02:52 Cloudy 63 17.2 58 14.4 84 84 SE 7 11 30.18 1022 10 16.0934 0 0
3:52 am 03:52 Cloudy 63 17.2 58 14.4 84 84 E 3 6 30.18 1022 10 16.0934 0 0
4:52 am 04:52 Cloudy 62 16.7 57 13.9 84 84 E 5 7 30.19 1022 10 16.0934 0 0
5:24 am 05:24 Cloudy 62 16.7 57 13.9 84 84 ENE 6 9 30.19 1022 10 16.0934 0 0
5:52 am 05:52 Cloudy 62 16.7 57 13.9 84 84 ESE 3 6 30.19 1023 10 16.0934 0 0
6:15 am 06:15 Cloudy 62 16.7 57 13.9 84 84 ESE 5 7 30.2 1023 10 16.0934 0 0
6:23 am 06:23 Cloudy 62 16.7 57 13.9 84 84 E 3 6 30.21 1023 10 16.0934 0 0
6:52 am 06:52 Cloudy 62 16.7 57 13.9 84 84 E 5 7 30.2 1023 10 16.0934 0 0
7:52 am 07:52 Cloudy 62 16.7 57 13.9 84 84 ENE 8 13 30.21 1023 10 16.0934 0 0
8:52 am 08:52 Cloudy 63 17.2 57 13.9 81 81 ENE 7 11 30.22 1023 10 16.0934 0 0
9:52 am 09:52 Cloudy 65 18.3 56 13.3 73 73 Calm 30.23 1024 10 16.0934 0 0
10:41 am 10:41 Cloudy 68 20 58 14.4 70 70 Calm 30.23 1024 10 16.0934 0 0
10:52 am 10:52 Cloudy 68 20 57 13.9 68 68 NE 3 6 30.23 1024 10 16.0934 0 0
11:52 am 11:52 Mostly Cloudy 69 20.6 58 14.4 68 68 Calm 30.24 1024 10 16.0934 0 0
12:52 pm 12:52 Mostly Cloudy 72 22.2 59 15 64 64 VRB 3 6 30.23 1024 10 16.0934 0 0
1:52 pm 13:52 Mostly Cloudy 74 23.3 60 15.6 62 62 NNE 5 7 30.23 1024 10 16.0934 0 0
2:52 pm 14:52 Partly Cloudy 74 23.3 60 15.6 62 62 Calm 30.19 1023 10 16.0934 0 0
3:52 pm 15:52 Partly Cloudy 76 24.4 61 16.1 60 60 NW 3 6 30.18 1022 10 16.0934 0 0
4:52 pm 16:52 Mostly Sunny 78 25.6 61 16.1 56 56 Calm 30.15 1021 10 16.0934 0 0
5:52 pm 17:52 Mostly Sunny 76 24.4 61 16.1 60 60 Calm 30.14 1021 10 16.0934 0 0
6:52 pm 18:52 Mostly Cloudy 75 23.9 62 16.7 64 64 ESE 7 11 30.14 1021 10 16.0934 0 0
7:52 pm 19:52 Partly Cloudy 71 21.7 61 16.1 71 71 SE 9 15 30.14 1021 10 16.0934 0 0
8:52 pm 20:52 Mostly Clear 69 20.6 58 14.4 68 68 SSE 3 6 30.16 1021 10 16.0934 0 0
9:52 pm 21:52 Mostly Clear 67 19.4 58 14.4 73 73 S 6 9 30.18 1022 10 16.0934 0 0
10:52 pm 22:52 Mostly Cloudy 66 18.9 59 15 78 78 SSE 5 7 30.18 1022 10 16.0934 0 0
11:52 pm 23:52 Mostly Cloudy 66 18.9 61 16.1 84 84 S 7 11 30.18 1022 10 16.0934 0 0

Powered by AerisWeather